Volver al catálogo

COSMOS 1275 DEB

ActivoPO
NORAD 42192·DEBRIS·🇷🇺 Russia

Lanzado Jun 4, 1981 desde Plesetsk Cosmodrome

Loading…

Próximos Pases (próximas 24 horas)

TLE

ActualizadoSource: Space-Track

Época: Sep 13, 2026, 04:16 UTC

1 42192U 81053TG  26256.17819904  .00001024  00000-0  98576-3 0  9990
2 42192  83.0867  63.0196 0124998 300.1603  58.7217 13.75894144640054

Sigue COSMOS 1275 DEB en tiempo real con AllMySat

Download on the App Store